Location: Hannover
(52.3723°N, 9.7339°E)
Time: 20:58:31
(UTC+02:00)

ISS - Visible Passes

Search period start: 25 May 2018 00:00
Search period end: 04 June 2018 00:00
Orbit: 402 x 407 km, 51.6° (Epoch: 26 May)

Date Brightness Start Highest point End Pass type
(mag) Time Alt. Az. Time Alt. Az. Time Alt. Az.
25 May -4.0 00:29:29 10° W 00:32:46 78° S 00:35:42 12° E visible
25 May -3.0 02:06:00 10° W 02:08:18 32° WSW 02:08:18 32° WSW visible
25 May -4.0 23:37:18 10° W 23:40:36 80° S 23:43:51 10° E visible
26 May -3.7 01:13:46 10° W 01:16:58 51° SSW 01:17:14 49° S visible
26 May -3.9 22:45:07 10° WSW 22:48:24 75° S 22:51:40 10° E visible
27 May -3.9 00:21:34 10° W 00:24:49 65° SSW 00:26:26 27° ESE visible
27 May -1.6 01:58:17 10° W 01:59:03 14° WSW 01:59:03 14° WSW visible
27 May -3.9 23:29:22 10° W 23:32:38 76° S 23:35:43 11° ESE visible
28 May -2.9 01:05:54 10° W 01:08:20 31° SW 01:08:20 31° SW visible
28 May -3.9 22:37:08 10° W 22:40:25 80° S 22:43:42 10° E visible
29 May -3.5 00:13:37 10° W 00:16:47 46° SSW 00:17:40 35° SSE visible
29 May -3.8 23:21:22 10° W 23:24:36 60° SSW 23:27:03 16° ESE visible
30 May -1.9 00:58:11 10° W 00:59:41 18° WSW 00:59:41 18° WSW visible
30 May -3.9 22:29:07 10° W 22:32:23 72° S 22:35:39 10° ESE visible
31 May -2.9 00:05:43 10° W 00:08:36 29° SSW 00:09:05 28° S visible
31 May -3.3 23:13:21 10° W 23:16:28 41° SSW 23:18:32 18° SE visible
01 Jun -3.6 22:21:03 10° W 22:24:16 55° SSW 22:27:29 10° ESE visible
01 Jun -2.0 23:58:00 10° W 00:00:17 18° SW 00:00:36 17° SSW visible
02 Jun -2.5 23:05:24 10° W 23:08:11 26° SSW 23:10:05 15° SSE visible
